[[{"header":{"parameterUnit":"m.s-1","parameterCategory":1,"la1":30.2991,"la2":30.254,"lo1":-89.0895,"lo2":-89.0444,"dy":0.0017,"dx":0.0017,"nx":28,"ny":28,"refTime":"2023-08-02T21:00:00:Z","depth":0,"parameterNumber":2,"parameterNumberName":"U-component_of_WINDS"},"data":[0,0,0,0,0,0,0,0,0,0,0,0,0,0,0,0,0,0,0,0,0,0,0,0,0,0,0,0,0,0,0,0,0,0,0,0,0,0,0,0,0,0,0,0,0,0,0,0,0,0,0,0,0,0,0,0,0,0,3.6794,3.6795,0,3.688,3.6881,3.6882,3.6848,3.6846,3.6844,3.6842,3.6937,3.6942,3.6946,0,0,0,0,0,0,0,0,0,0,0,0,0,3.6608,3.6612,3.6794,3.6795,3.6796,3.688,3.6881,3.6882,3.6849,3.6846,3.6844,3.6842,3.6936,3.6941,3.6946,0,0,0,0,0,0,0,0,0,0,0,0,0,3.6691,3.6613,3.6793,3.6789,3.6789,3.688,3.6881,3.6883,3.6849,3.6846,3.6843,3.684,3.6934,3.6941,3.6947,3.7048,0,0,3.6967,3.697,0,0,0,0,0,0,0,0,3.6686,3.6698,3.6789,3.679,3.679,3.685,3.685,3.6938,3.685,3.6827,3.6842,3.6839,3.6911,3.6919,3.6943,3.7053,3.7057,3.6968,3.6972,3.6975,3.6977,0,0,0,0,0,0,0,3.6681,3.6694,3.6828,3.679,3.6791,3.6786,3.6794,3.6867,3.6885,3.6829,3.6826,3.6837,3.6911,3.6936,3.6945,3.7058,3.6968,3.6974,3.6978,3.698,3.7262,3.7265,0,0,0,0,0,0,3.6674,3.6689,3.6825,3.6831,3.673,3.6791,3.6801,3.6834,3.6884,3.6889,3.6839,3.6835,3.6926,3.6937,3.6948,3.7073,3.6975,3.6981,3.6985,3.7258,3.7262,3.7266,0,0,0,0,0,0,3.667,3.6686,3.6822,3.676,3.6776,3.6798,3.6836,3.6837,3.6862,3.6892,3.6896,3.6861,3.6924,3.6938,3.7024,3.7076,3.6984,3.699,3.7254,3.726,3.7264,3.7323,0,0,0,0,0,0,3.6665,3.6685,3.6721,3.676,3.678,3.6895,3.6839,3.6841,3.6873,3.6868,3.6914,3.6918,3.6923,3.7015,3.7031,3.7083,3.6995,3.725,3.7257,3.7263,3.7317,3.733,3.7341,0,0,0,0,0,3.6658,3.6735,3.6723,3.674,3.6826,3.6897,3.6909,3.6911,3.6877,3.6916,3.6936,3.6917,3.7067,3.7024,3.7042,3.7097,3.7246,3.7255,3.7262,3.7311,3.7327,3.7341,0,0,0,0,0,0,3.6703,3.674,3.6728,3.6819,3.6855,3.6892,3.694,3.6927,3.6975,3.6969,3.6971,3.6982,3.7072,3.7092,3.7043,3.72,3.7152,3.7164,3.7183,3.7199,3.7211,3.7205,3.7,0,0,0,0,0,3.6723,3.6776,3.6806,3.6884,3.6903,3.6919,3.695,3.6949,3.6987,3.7003,3.7029,3.7069,3.7126,3.7163,3.7216,3.7319,3.7331,3.7366,3.7378,3.7388,3.7399,3.746,3.7477,3.7292,3.7292,3.7292,0,0,3.6766,3.6793,3.6826,3.6894,3.6922,3.698,3.6932,3.6994,3.7038,3.7013,3.7096,3.7117,3.7162,3.7258,3.7302,3.7279,3.7453,3.7398,3.7406,3.7412,3.747,3.7487,3.7503,3.7298,3.7297,3.7296,0,0,3.6874,3.6898,3.6967,3.6996,3.7039,3.705,3.7066,3.7106,3.7118,3.7201,3.7185,3.7238,3.7335,3.7369,3.7399,3.7524,3.751,3.7541,3.7605,3.7664,3.7679,3.7692,3.774,3.7757,3.7552,3.7552,3.7552,0,3.6923,3.7007,3.7005,3.707,3.7102,3.708,3.7153,3.7182,3.7241,3.7265,3.7238,3.7361,3.7389,3.7495,3.7526,3.755,3.7572,3.7537,3.7676,3.7689,3.7702,3.7748,3.7765,3.7556,3.7555,3.7555,3.7554,0,3.7066,3.7125,3.7177,3.7233,3.7271,3.7339,3.7351,3.739,3.7386,3.7401,3.7488,3.7522,3.7584,3.7608,3.7605,3.7715,3.77,3.7674,3.7627,3.7723,3.7767,3.7784,3.7561,3.756,3.7558,3.7558,0,0,3.7205,3.7261,3.728,3.7308,3.7354,3.7402,3.7471,3.753,3.7565,3.7607,3.7668,3.7751,3.7729,3.7763,3.7764,3.7815,3.7917,3.7784,3.7785,3.781,3.8045,3.8066,3.8086,3.7907,3.791,3.7913,3.8042,0,3.732,3.7439,3.7441,3.7551,3.7609,3.759,3.7651,3.7689,3.7705,3.7758,3.7776,3.7836,3.78,3.7821,3.7871,3.7894,3.7964,3.7884,3.7967,3.797,3.7959,3.8108,3.813,3.8251,3.8059,3.8062,3.8064,0,3.7469,3.7515,3.7632,3.7674,3.7698,3.7752,3.7809,3.7858,3.7902,3.791,3.795,3.7943,3.8018,3.7966,3.8071,3.8017,3.8051,3.8068,3.8073,3.8083,3.8025,3.8126,3.8289,3.8308,3.809,3.8088,3.8086,0,3.7563,3.7655,3.7737,3.7761,3.781,3.785,3.7873,3.7913,3.795,3.8,3.8025,3.8083,3.8116,3.8163,3.8174,3.8135,3.8281,3.8229,3.8294,3.8294,3.8327,3.8325,3.8501,3.8344,3.8344,3.8344,3.8343,0,3.7693,3.7766,3.7781,3.7832,3.7914,3.7917,3.8,3.802,3.8057,3.8114,3.8102,3.8156,3.8167,3.8225,3.8234,3.8322,3.8336,3.8348,3.8351,3.8351,3.835,3.8376,3.8369,3.8348,3.8347,3.8346,3.8346,0,3.7813,3.7825,3.7914,3.7955,3.7967,3.8026,3.8062,3.8113,3.8128,3.8201,3.8218,3.8243,3.8311,3.8326,3.8407,3.8414,3.852,3.8512,3.8505,3.8505,3.857,3.8565,3.8771,3.88,3.8621,3.8622,3.8624,0,3.7896,3.7952,3.7998,3.8035,3.806,3.8119,3.8156,3.8162,3.8203,3.8258,3.8303,3.8369,3.8423,3.8533,3.856,3.8623,3.8619,3.8687,3.8629,3.8629,3.8625,3.8622,3.863,3.8699,3.8701,3.8702,3.8704,0,3.8044,3.8048,3.8101,3.8158,3.8203,3.8248,3.8291,3.8323,3.8335,3.8382,3.845,3.8492,3.8575,3.8642,3.8706,3.8733,3.8723,3.8721,3.874,3.8743,3.8738,3.8745,3.8538,3.8717,3.8716,3.8715,3.8714,3.8714,3.815,3.8201,3.8242,3.8303,3.8336,3.8378,3.8428,3.845,3.8506,3.8573,3.8574,3.865,3.8696,3.878,3.8811,3.8873,3.8853,3.8879,3.8886,3.8894,3.8901,3.8726,3.8884,3.8884,3.8884,3.8883,3.8883,0,3.8301,3.8327,3.8383,3.8444,3.8493,3.8476,3.8524,3.8567,3.8634,3.8676,3.8729,3.881,3.8876,3.8909,3.8975,3.9019,3.9016,3.9037,3.9035,3.9043,3.8914,3.8892,3.9038,3.9038,3.9038,3.9038,3.9038,3.9038,3.8385,3.847,3.848,3.8583,3.8609,3.8682,3.8712,3.8751,3.8786,3.8876,3.8931,3.8951,3.8991,3.906,3.9122,3.913,3.9157,3.918,3.9187,3.9067,3.9051,3.9036,3.9016,3.9185,3.9186,3.931,3.9312,3.9312]},{"header":{"parameterUnit":"m.s-1","parameterCategory":1,"la1":30.2991,"la2":30.254,"lo1":-89.0895,"lo2":-89.0444,"dy":0.0017,"dx":0.0017,"nx":28,"ny":28,"refTime":"2023-08-02T21:00:00:Z","depth":0,"parameterNumber":3,"parameterNumberName":"V-component_of_WINDS"},"data":[0,0,0,0,0,0,0,0,0,0,0,0,0,0,0,0,0,0,0,0,0,0,0,0,0,0,0,0,0,0,0,0,0,0,0,0,0,0,0,0,0,0,0,0,0,0,0,0,0,0,0,0,0,0,0,0,0,0,1.0088,1.0089,0,1.0198,1.0199,1.0201,1.0219,1.0218,1.0217,1.0216,1.0328,1.0332,1.0336,0,0,0,0,0,0,0,0,0,0,0,0,0,0.9889,0.9893,1.0088,1.0089,1.009,1.0198,1.0199,1.0201,1.0219,1.0218,1.0217,1.0216,1.0327,1.0331,1.0336,0,0,0,0,0,0,0,0,0,0,0,0,0,0.9985,0.9894,1.0087,1.0112,1.0116,1.0198,1.02,1.0201,1.0219,1.0218,1.0217,1.0215,1.0325,1.0331,1.0337,1.0401,0,0,1.0354,1.0357,0,0,0,0,0,0,0,0,0.998,0.9992,1.0107,1.0111,1.0115,1.0193,1.0171,1.0268,1.022,1.018,1.0216,1.0215,1.0284,1.0293,1.0317,1.0406,1.0411,1.0355,1.0358,1.0361,1.0363,0,0,0,0,0,0,0,0.9973,0.9988,1.0131,1.0109,1.0114,1.0117,1.0129,1.0189,1.0239,1.0183,1.0185,1.0198,1.0286,1.0312,1.032,1.0413,1.0355,1.036,1.0363,1.0366,1.0555,1.0557,0,0,0,0,0,0,0.9962,0.9982,1.0128,1.0135,1.0042,1.0122,1.0135,1.017,1.0238,1.0247,1.0199,1.0198,1.0302,1.0313,1.0324,1.0401,1.0361,1.0366,1.037,1.0554,1.0556,1.0558,0,0,0,0,0,0,0.9958,0.9975,1.0123,1.0059,1.0078,1.0127,1.0165,1.0172,1.0198,1.025,1.0259,1.0216,1.0302,1.0316,1.0381,1.0405,1.0369,1.0374,1.0552,1.0555,1.0557,1.0557,0,0,0,0,0,0,0.9952,0.9973,0.9999,1.0059,1.0081,1.0179,1.0167,1.0176,1.0208,1.0208,1.0268,1.0277,1.0302,1.0372,1.0387,1.0413,1.0379,1.055,1.0553,1.0556,1.0555,1.0559,1.0563,0,0,0,0,0,0.9945,0.9995,1.0,1.0018,1.0115,1.0181,1.0193,1.0221,1.021,1.0236,1.0268,1.0275,1.04,1.0379,1.0395,1.0423,1.0549,1.0552,1.0556,1.0554,1.0558,1.0563,0,0,0,0,0,0,0.9937,1.0004,1.001,1.0082,1.0125,1.0184,1.0217,1.0226,1.0274,1.0272,1.0304,1.0317,1.038,1.0408,1.0383,1.0487,1.0473,1.048,1.0466,1.0471,1.0475,1.0466,1.0383,0,0,0,0,0,0.9944,0.9993,1.0048,1.0106,1.0127,1.0168,1.0198,1.0216,1.0262,1.0281,1.0318,1.0362,1.0411,1.0443,1.0491,1.0559,1.0571,1.0587,1.059,1.0593,1.0599,1.0633,1.064,1.0569,1.0569,1.0569,0,0,0.9958,1.0001,1.003,1.0105,1.0141,1.0189,1.0184,1.0236,1.0272,1.0288,1.0351,1.038,1.0431,1.0497,1.0528,1.0523,1.0621,1.0598,1.06,1.0604,1.0638,1.0644,1.065,1.0572,1.0571,1.0571,0,0,1.0009,1.0047,1.0098,1.0133,1.0187,1.0214,1.0226,1.0282,1.0302,1.0366,1.0378,1.0421,1.0505,1.054,1.0569,1.0629,1.0636,1.0644,1.0663,1.0697,1.0703,1.0708,1.0727,1.0733,1.0649,1.0649,1.0649,0,1.002,1.0094,1.0123,1.0174,1.0205,1.0222,1.0272,1.0305,1.0372,1.0393,1.0386,1.049,1.0526,1.0599,1.0613,1.0637,1.065,1.0637,1.07,1.0705,1.071,1.0728,1.0736,1.065,1.065,1.065,1.065,0,1.0103,1.0154,1.0189,1.0252,1.0288,1.0338,1.0373,1.0405,1.0419,1.0445,1.0508,1.0552,1.0607,1.0626,1.064,1.07,1.0695,1.0693,1.068,1.0717,1.0734,1.0742,1.065,1.065,1.065,1.065,0,0,1.0153,1.023,1.0242,1.0269,1.0329,1.0368,1.0418,1.0473,1.0499,1.0544,1.0585,1.0655,1.0653,1.0685,1.0703,1.0733,1.0774,1.0728,1.0729,1.0733,1.0839,1.0839,1.0847,1.0779,1.0781,1.0782,1.0834,0,1.0209,1.0299,1.0325,1.0401,1.0447,1.0462,1.0505,1.0545,1.057,1.0612,1.064,1.0688,1.0683,1.0702,1.0733,1.0763,1.0796,1.076,1.0816,1.0818,1.0802,1.0857,1.0857,1.0904,1.0842,1.0843,1.0844,0,1.0287,1.0332,1.0412,1.0463,1.0483,1.0521,1.0571,1.0612,1.0657,1.0673,1.0708,1.0722,1.0773,1.0757,1.0826,1.08,1.0825,1.0843,1.0845,1.0851,1.0832,1.0862,1.092,1.0927,1.0856,1.0855,1.0854,0,1.0312,1.0393,1.0451,1.0474,1.0536,1.0562,1.0588,1.0632,1.0662,1.0705,1.0725,1.0774,1.08,1.0837,1.0863,1.085,1.0928,1.0916,1.0941,1.0941,1.0957,1.0955,1.1019,1.0975,1.0975,1.0975,1.0975,0,1.0371,1.0419,1.0463,1.0498,1.0551,1.0579,1.063,1.0658,1.0695,1.0735,1.0751,1.0787,1.0821,1.0861,1.0882,1.0934,1.0946,1.0959,1.0964,1.0957,1.0955,1.0973,1.097,1.0977,1.0976,1.0976,1.0976,0,1.0408,1.044,1.0503,1.0555,1.057,1.0606,1.065,1.0684,1.0709,1.0758,1.0771,1.0811,1.0859,1.0889,1.095,1.0964,1.102,1.1025,1.1005,1.1007,1.103,1.1027,1.1106,1.1117,1.1067,1.1068,1.1068,0,1.0443,1.048,1.0536,1.0563,1.059,1.0634,1.0664,1.0693,1.0723,1.0775,1.0802,1.0851,1.0892,1.0967,1.1,1.1046,1.1051,1.1075,1.1058,1.1048,1.1048,1.1045,1.1048,1.1078,1.1078,1.1078,1.1079,0,1.0501,1.0514,1.0557,1.0605,1.0641,1.068,1.0719,1.074,1.0775,1.0808,1.0857,1.0888,1.0949,1.0997,1.1045,1.1071,1.108,1.1084,1.1092,1.1085,1.1071,1.1076,1.1011,1.1082,1.1082,1.1081,1.1081,1.1081,1.0537,1.0569,1.0613,1.0659,1.0691,1.0727,1.076,1.0789,1.083,1.0882,1.0896,1.0947,1.0988,1.1053,1.108,1.1119,1.1115,1.1127,1.113,1.1132,1.1132,1.1065,1.1128,1.1128,1.1128,1.1128,1.1128,0,1.0594,1.0622,1.0665,1.0718,1.0754,1.0759,1.0802,1.0831,1.0875,1.0913,1.0952,1.1007,1.1052,1.1088,1.1134,1.1157,1.1162,1.1168,1.1166,1.1171,1.1133,1.1121,1.1163,1.1163,1.1163,1.1163,1.1163,1.1163,1.0627,1.0681,1.0699,1.0768,1.0796,1.0845,1.0869,1.09,1.093,1.0991,1.1028,1.1051,1.1087,1.1136,1.1176,1.1186,1.1201,1.1206,1.1215,1.1179,1.1175,1.1171,1.1159,1.1209,1.1209,1.125,1.1251,1.1251]}]]